TimeEST,TemperatureF,Dew PointF,Humidity,Sea Level PressureIn,VisibilityMPH,Wind Direction,Wind SpeedMPH,Gust SpeedMPH,PrecipitationIn,Events,Conditions,WindDirDegrees,DateUTC
12:53 AM,-9999,-9999,N/A,30.31,0.2,Calm,Calm,-,N/A,Fog,Fog,0,2014-02-04 05:53:00
1:21 AM,-9999,-9999,N/A,30.31,0.2,Calm,Calm,-,N/A,Fog,Fog,0,2014-02-04 06:21:00
1:44 AM,-9999,-9999,N/A,30.32,0.2,Calm,Calm,-,N/A,Fog,Fog,0,2014-02-04 06:44:00
1:53 AM,-9999,-9999,N/A,30.33,0.2,Calm,Calm,-,N/A,Fog,Fog,0,2014-02-04 06:53:00
2:18 AM,-9999,-9999,N/A,30.35,0.5,Calm,Calm,-,N/A,Fog,Fog,0,2014-02-04 07:18:00
2:24 AM,-9999,-9999,N/A,30.35,2.0,Calm,Calm,-,N/A,,Partly Cloudy,0,2014-02-04 07:24:00
2:29 AM,-9999,-9999,N/A,30.35,0.8,Calm,Calm,-,N/A,,Mist,0,2014-02-04 07:29:00
2:37 AM,-9999,-9999,N/A,30.36,0.2,Calm,Calm,-,N/A,Fog,Fog,0,2014-02-04 07:37:00
2:53 AM,-9999,-9999,N/A,30.35,0.2,Calm,Calm,-,N/A,Fog,Fog,0,2014-02-04 07:53:00
3:09 AM,-9999,-9999,N/A,30.35,1.2,Calm,Calm,-,N/A,,Partly Cloudy,0,2014-02-04 08:09:00
3:11 AM,-9999,-9999,N/A,30.35,4.0,Calm,Calm,-,N/A,,Haze,0,2014-02-04 08:11:00
3:23 AM,-9999,-9999,N/A,30.35,1.2,Calm,Calm,-,N/A,,Partly Cloudy,0,2014-02-04 08:23:00
3:25 AM,-9999,-9999,N/A,30.36,0.8,Calm,Calm,-,N/A,,Mist,0,2014-02-04 08:25:00
3:37 AM,-9999,-9999,N/A,30.36,1.2,Calm,Calm,-,N/A,,Partly Cloudy,0,2014-02-04 08:37:00
3:43 AM,-9999,-9999,N/A,30.36,4.0,Calm,Calm,-,N/A,,Haze,0,2014-02-04 08:43:00
3:48 AM,-9999,-9999,N/A,30.36,1.0,Calm,Calm,-,N/A,,Mist,0,2014-02-04 08:48:00
3:53 AM,-9999,-9999,N/A,30.36,0.5,Calm,Calm,-,N/A,Fog,Fog,0,2014-02-04 08:53:00
4:06 AM,-9999,-9999,N/A,30.36,0.2,Calm,Calm,-,N/A,Fog,Fog,0,2014-02-04 09:06:00
4:16 AM,-9999,-9999,N/A,30.37,0.8,Calm,Calm,-,N/A,,Mist,0,2014-02-04 09:16:00
4:32 AM,-9999,-9999,N/A,30.37,0.2,Calm,Calm,-,N/A,Fog,Fog,0,2014-02-04 09:32:00
4:38 AM,-9999,-9999,N/A,30.37,1.2,Calm,Calm,-,N/A,,Mostly Cloudy,0,2014-02-04 09:38:00
4:41 AM,-9999,-9999,N/A,30.37,3.0,Calm,Calm,-,N/A,,Mostly Cloudy,0,2014-02-04 09:41:00
4:49 AM,-9999,-9999,N/A,30.38,6.0,Calm,Calm,-,N/A,,Haze,0,2014-02-04 09:49:00
4:53 AM,-9999,-9999,N/A,30.38,4.0,Calm,Calm,-,N/A,,Haze,0,2014-02-04 09:53:00
5:15 AM,-9999,-9999,N/A,30.38,1.5,Calm,Calm,-,N/A,,Clear,0,2014-02-04 10:15:00
5:23 AM,-9999,-9999,N/A,30.39,0.5,Calm,Calm,-,N/A,Fog,Fog,0,2014-02-04 10:23:00
5:32 AM,-9999,-9999,N/A,30.39,2.0,Calm,Calm,-,N/A,,Clear,0,2014-02-04 10:32:00
5:39 AM,-9999,-9999,N/A,30.39,6.0,Calm,Calm,-,N/A,,Haze,0,2014-02-04 10:39:00
5:53 AM,-9999,-9999,N/A,30.40,3.0,Calm,Calm,-,N/A,,Partly Cloudy,0,2014-02-04 10:53:00
6:42 AM,-9999,-9999,N/A,30.41,2.5,Calm,Calm,-,N/A,,Mostly Cloudy,0,2014-02-04 11:42:00
6:46 AM,-9999,-9999,N/A,30.41,0.8,Calm,Calm,-,N/A,,Mist,0,2014-02-04 11:46:00
6:53 AM,-9999,-9999,N/A,30.42,0.2,Calm,Calm,-,N/A,Fog,Fog,0,2014-02-04 11:53:00
7:04 AM,-9999,-9999,N/A,30.43,1.2,Calm,Calm,-,N/A,,Scattered Clouds,0,2014-02-04 12:04:00
7:06 AM,-9999,-9999,N/A,30.43,3.0,Calm,Calm,-,N/A,,Scattered Clouds,0,2014-02-04 12:06:00
7:11 AM,-9999,-9999,N/A,30.43,0.5,Calm,Calm,-,N/A,Fog,Fog,0,2014-02-04 12:11:00
7:20 AM,-9999,-9999,N/A,30.43,0.2,Calm,Calm,-,N/A,Fog,Fog,0,2014-02-04 12:20:00
7:32 AM,-9999,-9999,N/A,30.43,1.5,Calm,Calm,-,N/A,,Partly Cloudy,0,2014-02-04 12:32:00
7:39 AM,-9999,-9999,N/A,30.43,5.0,Calm,Calm,-,N/A,,Haze,0,2014-02-04 12:39:00
7:53 AM,-9999,-9999,N/A,30.44,7.0,NW,3.5,-,N/A,,Clear,320,2014-02-04 12:53:00
8:53 AM,-9999,-9999,N/A,30.47,5.0,Calm,Calm,-,N/A,,Haze,0,2014-02-04 13:53:00
9:53 AM,-9999,-9999,N/A,30.48,10.0,Calm,Calm,-,N/A,,Clear,0,2014-02-04 14:53:00
10:53 AM,-9999,-9999,N/A,30.47,10.0,NNE,3.5,-,N/A,,Clear,20,2014-02-04 15:53:00
11:53 AM,-9999,-9999,N/A,30.45,10.0,Calm,Calm,-,N/A,,Clear,0,2014-02-04 16:53:00
12:53 PM,-9999,-9999,N/A,30.40,10.0,Calm,Calm,-,N/A,,Clear,0,2014-02-04 17:53:00
1:53 PM,-9999,-9999,N/A,30.39,10.0,Calm,Calm,-,N/A,,Clear,0,2014-02-04 18:53:00
2:53 PM,33.1,19.9,59,30.39,10.0,SW,3.5,-,N/A,,Clear,220,2014-02-04 19:53:00
3:53 PM,32.0,21.0,64,30.36,10.0,SSE,3.5,-,N/A,,Clear,160,2014-02-04 20:53:00
4:53 PM,30.0,19.9,66,30.37,10.0,South,8.1,-,N/A,,Clear,190,2014-02-04 21:53:00
5:53 PM,30.0,21.0,69,30.39,10.0,Calm,Calm,-,N/A,,Clear,0,2014-02-04 22:53:00
6:53 PM,28.0,21.0,75,30.41,10.0,South,5.8,-,N/A,,Clear,170,2014-02-04 23:53:00
7:53 PM,25.0,21.0,85,30.38,9.0,Calm,Calm,-,N/A,,Clear,0,2014-02-05 00:53:00
8:53 PM,21.9,19.0,89,30.39,7.0,Calm,Calm,-,N/A,,Clear,0,2014-02-05 01:53:00
9:53 PM,24.1,19.9,84,30.35,6.0,Calm,Calm,-,N/A,,Clear,0,2014-02-05 02:53:00
10:53 PM,23.0,19.9,88,30.33,6.0,Calm,Calm,-,N/A,,Clear,0,2014-02-05 03:53:00
11:53 PM,24.1,21.9,91,30.32,5.0,Calm,Calm,-,N/A,,Mostly Cloudy,0,2014-02-05 04:53:00